| time (UTC) | temp F | wind direction | speed MPH | gust MPH | rain 1hr in | rain 24hr in | rain mn in | humidity % | barometer mb |
| 20260505010050 | 65 | 199 | 0.0 | 3.0 | 0.00 | 0.00 | 0.00 | 51 | 1012.0 |
| 20260505004555 | 67 | 275 | 0.0 | 7.0 | 0.00 | 0.00 | 0.00 | 50 | 1011.7 |
| 20260505004553 | 67 | 0 | 0.0 | 7.0 | 0.00 | 0.00 | 0.00 | 49 | 1015.0 |
| 20260505003059 | 68 | 0 | 0.0 | 5.0 | 0.00 | 0.00 | 0.00 | 47 | 1014.8 |
| 20260505003049 | 68 | 275 | 0.0 | 4.0 | 0.00 | 0.00 | 0.00 | 47 | 1011.9 |
| 20260505001557 | 70 | 0 | 0.0 | 5.0 | 0.00 | 0.00 | 0.00 | 46 | 1014.8 |
| 20260505001552 | 70 | 198 | 0.0 | 5.0 | 0.00 | 0.00 | 0.00 | 47 | 1012.0 |
| 20260505000105 | 70 | 224 | 0.0 | 7.0 | 0.00 | 0.00 | 0.00 | 46 | 1011.7 |
| 20260505000056 | 70 | 0 | 0.0 | 7.0 | 0.00 | 0.00 | 0.00 | 46 | 1014.9 |
| 20260504234555 | 68 | 0 | 0.0 | 3.0 | 0.00 | 0.00 | 0.00 | 46 | 1014.7 |
| 20260504234545 | 68 | 221 | 0.0 | 3.0 | 0.00 | 0.00 | 0.00 | 46 | 1011.8 |
| 20260504233050 | 68 | 0 | 0.0 | 2.0 | 0.00 | 0.00 | 0.00 | 46 | 1014.6 |
| 20260504233045 | 68 | 284 | 0.0 | 2.0 | 0.00 | 0.00 | 0.00 | 47 | 1011.7 |
| 20260504231553 | 68 | 0 | 0.0 | 4.0 | 0.00 | 0.00 | 0.00 | 43 | 1014.7 |
| 20260504231546 | 68 | 284 | 0.0 | 2.0 | 0.00 | 0.00 | 0.00 | 44 | 1011.6 |
| 20260504230100 | 68 | 283 | 0.0 | 3.0 | 0.00 | 0.00 | 0.00 | 42 | 1011.8 |
| 20260504230052 | 68 | 0 | 0.0 | 3.0 | 0.00 | 0.00 | 0.00 | 41 | 1014.7 |
| 20260504224552 | 69 | 0 | 0.0 | 3.0 | 0.00 | 0.00 | 0.00 | 43 | 1015.0 |
| 20260504224542 | 69 | 290 | 0.0 | 2.0 | 0.00 | 0.00 | 0.00 | 44 | 1012.1 |
| 20260504223109 | 69 | 0 | 0.0 | 7.0 | 0.00 | 0.00 | 0.00 | 42 | 1015.2 |
| 20260504223041 | 69 | 291 | 0.0 | 6.0 | 0.00 | 0.00 | 0.00 | 43 | 1012.2 |
| 20260504221553 | 69 | 0 | 0.0 | 2.0 | 0.00 | 0.00 | 0.00 | 43 | 1015.2 |
| 20260504221550 | 69 | 241 | 0.0 | 2.0 | 0.00 | 0.00 | 0.00 | 43 | 1012.4 |
| 20260504220038 | 67 | 241 | 0.0 | 1.0 | 0.00 | 0.00 | 0.00 | 45 | 1012.5 |
| 20260504214555 | 67 | 0 | 0.0 | 2.0 | 0.00 | 0.00 | 0.00 | 46 | 1015.5 |
| 20260504214537 | 67 | 240 | 0.0 | 1.0 | 0.00 | 0.00 | 0.00 | 47 | 1012.7 |
| 20260504213106 | 67 | 240 | 0.0 | 5.0 | 0.00 | 0.00 | 0.00 | 44 | 1015.7 |
| 20260504213043 | 67 | 240 | 0.0 | 5.0 | 0.00 | 0.00 | 0.00 | 45 | 1013.0 |
| 20260504211649 | 66 | 0 | 0.0 | 4.0 | 0.00 | 0.00 | 0.00 | 48 | 1016.0 |
| 20260504211535 | 66 | 250 | 0.0 | 2.0 | 0.00 | 0.00 | 0.00 | 49 | 1013.1 |
| 20260504210056 | 66 | 0 | 0.0 | 1.0 | 0.00 | 0.00 | 0.00 | 47 | 1016.1 |
| 20260504210035 | 66 | 205 | 0.0 | 1.0 | 0.00 | 0.00 | 0.00 | 47 | 1013.1 |
| 20260504204556 | 66 | 0 | 0.0 | 2.0 | 0.00 | 0.00 | 0.00 | 48 | 1016.1 |
| 20260504204538 | 66 | 205 | 0.0 | 2.0 | 0.00 | 0.00 | 0.00 | 49 | 1013.2 |
| 20260504203107 | 67 | 205 | 0.0 | 4.0 | 0.00 | 0.00 | 0.00 | 47 | 1016.0 |
| 20260504203034 | 67 | 205 | 0.0 | 1.0 | 0.00 | 0.00 | 0.00 | 48 | 1013.2 |
| 20260504201614 | 67 | 203 | 1.0 | 7.0 | 0.00 | 0.00 | 0.00 | 46 | 1016.2 |
| 20260504201533 | 67 | 203 | 1.0 | 5.0 | 0.00 | 0.00 | 0.00 | 47 | 1013.2 |
| 20260504200100 | 67 | 0 | 0.0 | 3.0 | 0.00 | 0.00 | 0.00 | 54 | 1016.0 |
| 20260504200030 | 67 | 204 | 0.0 | 3.0 | 0.00 | 0.00 | 0.00 | 54 | 1013.5 |
| 20260504194557 | 65 | 142 | 0.0 | 3.0 | 0.00 | 0.00 | 0.00 | 51 | 1016.4 |
| 20260504194527 | 65 | 142 | 0.0 | 4.0 | 0.00 | 0.00 | 0.00 | 53 | 1013.7 |
| 20260504193107 | 64 | 194 | 0.0 | 5.0 | 0.00 | 0.00 | 0.00 | 55 | 1016.6 |
| 20260504193025 | 64 | 194 | 0.0 | 5.0 | 0.00 | 0.00 | 0.00 | 55 | 1013.7 |
| 20260504191612 | 64 | 0 | 1.0 | 7.0 | 0.00 | 0.00 | 0.00 | 55 | 1016.6 |
| 20260504191526 | 64 | 192 | 0.0 | 7.0 | 0.00 | 0.00 | 0.00 | 55 | 1013.8 |
| 20260504190109 | 64 | 199 | 0.0 | 6.0 | 0.00 | 0.00 | 0.00 | 52 | 1016.8 |
| 20260504190024 | 64 | 199 | 0.0 | 6.0 | 0.00 | 0.00 | 0.00 | 52 | 1014.0 |
| 20260504184559 | 63 | 197 | 1.0 | 6.0 | 0.00 | 0.00 | 0.00 | 55 | 1016.6 |
| 20260504184521 | 63 | 152 | 1.0 | 5.0 | 0.00 | 0.00 | 0.00 | 56 | 1013.8 |
| 20260504183057 | 63 | 210 | 0.0 | 4.0 | 0.00 | 0.00 | 0.00 | 54 | 1016.7 |
| 20260504183020 | 63 | 210 | 0.0 | 4.0 | 0.00 | 0.00 | 0.00 | 54 | 1014.0 |
| 20260504181601 | 62 | 0 | 1.0 | 3.0 | 0.00 | 0.00 | 0.00 | 57 | 1017.0 |
| 20260504181516 | 62 | 211 | 1.0 | 3.0 | 0.00 | 0.00 | 0.00 | 58 | 1014.2 |
| 20260504180105 | 62 | 216 | 1.0 | 9.0 | 0.00 | 0.00 | 0.00 | 58 | 1016.9 |
| 20260504180015 | 62 | 216 | 1.0 | 8.0 | 0.00 | 0.00 | 0.00 | 59 | 1013.8 |
| 20260504174556 | 61 | 0 | 0.0 | 3.0 | 0.00 | 0.00 | 0.00 | 60 | 1016.7 |
| 20260504174512 | 61 | 215 | 0.0 | 3.0 | 0.00 | 0.00 | 0.00 | 61 | 1013.8 |
| 20260504173057 | 61 | 216 | 1.0 | 7.0 | 0.00 | 0.00 | 0.00 | 59 | 1016.6 |
| 20260504173011 | 61 | 223 | 1.0 | 7.0 | 0.00 | 0.00 | 0.00 | 59 | 1013.8 |
| 20260504171554 | 60 | 208 | 0.0 | 4.0 | 0.00 | 0.00 | 0.00 | 59 | 1016.4 |
| 20260504171509 | 60 | 208 | 0.0 | 4.0 | 0.00 | 0.00 | 0.00 | 60 | 1013.6 |
| 20260504160103 | 57 | 190 | 0.0 | 1.0 | 0.00 | 0.00 | 0.00 | 75 | 1013.5 |
| 20260504081553 | 56 | 0 | 0.0 | 2.0 | 0.00 | 0.02 | 0.00 | 79 | 1016.3 |
| 20260504081516 | 56 | 192 | 0.0 | 2.0 | 0.00 | 0.02 | 0.00 | 80 | 1013.6 |
| 20260504050002 | 56 | 165 | 0.0 | 3.0 | 0.00 | 0.02 | 0.02 | 76 | 1013.0 |
| 20260504044550 | 56 | 165 | 0.0 | 4.0 | 0.00 | 0.02 | 0.02 | 75 | 1015.9 |
| 20260504044502 | 56 | 165 | 1.0 | 3.0 | 0.00 | 0.02 | 0.02 | 76 | 1012.8 |
| 20260504043058 | 56 | 0 | 0.0 | 2.0 | 0.00 | 0.02 | 0.02 | 74 | 1015.7 |
| 20260504043002 | 56 | 165 | 0.0 | 2.0 | 0.00 | 0.02 | 0.02 | 75 | 1012.9 |
| 20260504041552 | 57 | 0 | 1.0 | 5.0 | 0.00 | 0.02 | 0.02 | 74 | 1015.7 |
| 20260504041501 | 57 | 164 | 1.0 | 4.0 | 0.00 | 0.02 | 0.02 | 74 | 1013.0 |
| 20260504040120 | 57 | 0 | 0.0 | 5.0 | 0.00 | 0.02 | 0.02 | 73 | 1015.7 |
| 20260504034600 | 57 | 134 | 1.0 | 4.0 | 0.00 | 0.02 | 0.02 | 72 | 1012.7 |
| 20260504034550 | 57 | 134 | 0.0 | 7.0 | 0.00 | 0.02 | 0.02 | 72 | 1015.7 |
| 20260504033100 | 57 | 159 | 0.0 | 5.0 | 0.00 | 0.02 | 0.02 | 72 | 1012.4 |
| 20260504033051 | 57 | 0 | 1.0 | 6.0 | 0.00 | 0.02 | 0.02 | 71 | 1015.6 |
| 20260504031600 | 58 | 143 | 1.0 | 6.0 | 0.00 | 0.02 | 0.02 | 70 | 1015.3 |
| 20260504031558 | 58 | 144 | 2.0 | 6.0 | 0.00 | 0.02 | 0.02 | 71 | 1012.0 |
| 20260504030058 | 58 | 173 | 0.0 | 5.0 | 0.00 | 0.02 | 0.02 | 70 | 1011.9 |
| 20260504030051 | 58 | 210 | 0.0 | 5.0 | 0.00 | 0.02 | 0.02 | 69 | 1015.1 |
| 20260504024615 | 59 | 138 | 1.0 | 7.0 | 0.00 | 0.02 | 0.02 | 67 | 1011.8 |
| 20260504024553 | 59 | 138 | 1.0 | 8.0 | 0.00 | 0.02 | 0.02 | 67 | 1015.0 |
| 20260504023057 | 60 | 195 | 1.0 | 6.0 | 0.00 | 0.02 | 0.02 | 64 | 1011.4 |
| 20260504023049 | 60 | 0 | 1.0 | 7.0 | 0.00 | 0.02 | 0.02 | 63 | 1014.7 |
| 20260504021556 | 61 | 225 | 2.0 | 7.0 | 0.00 | 0.02 | 0.02 | 62 | 1011.3 |
| 20260504021552 | 61 | 224 | 1.0 | 6.0 | 0.00 | 0.02 | 0.02 | 62 | 1014.6 |
| 20260504020109 | 61 | 205 | 0.0 | 7.0 | 0.00 | 0.02 | 0.02 | 61 | 1014.3 |
| 20260504020055 | 61 | 205 | 1.0 | 6.0 | 0.00 | 0.02 | 0.02 | 62 | 1011.0 |
| 20260504014601 | 62 | 190 | 0.0 | 6.0 | 0.00 | 0.02 | 0.02 | 61 | 1010.7 |
| 20260504014552 | 62 | 0 | 1.0 | 9.0 | 0.00 | 0.02 | 0.02 | 60 | 1014.1 |
| 20260504013056 | 63 | 155 | 0.0 | 4.0 | 0.00 | 0.02 | 0.02 | 60 | 1010.7 |
| 20260504013048 | 63 | 0 | 0.0 | 6.0 | 0.00 | 0.02 | 0.02 | 60 | 1013.9 |
| 20260504011552 | 65 | 0 | 0.0 | 6.0 | 0.00 | 0.02 | 0.02 | 58 | 1013.9 |